CW1793 Weather Reports


Display with metric or nautical units.
time (UTC)temp
F
wind
direction
speed
MPH
gust
MPH
rain 1hr
in
rain 24hr
in
rain mn
in
humidity
%
barometer
mb
20260906213046 83 115 6.0 21.0 0.00 0.00 0.00 37 1004.1
20260906211540 84 90 6.0 17.0 0.00 0.00 0.00 37 1004.2
20260906210039 86 90 11.0 22.0 0.00 0.00 0.00 34 1004.4
20260906204535 87 92 10.0 16.0 0.00 0.00 0.00 31 1004.6
20260906203034 86 51 7.0 16.0 0.00 0.00 0.00 32 1004.8
20260906201556 88 84 9.0 16.0 0.00 0.00 0.00 30 1005.1
20260906200031 89 103 2.0 14.0 0.00 0.00 0.00 31 1005.0
20260906194529 89 126 8.0 18.0 0.00 0.00 0.00 30 1005.3
20260906193031 88 165 8.0 16.0 0.00 0.00 0.00 30 1005.6
20260906191527 88 140 9.0 14.0 0.00 0.00 0.00 29 1005.7
20260906190029 88 40 4.0 13.0 0.00 0.00 0.00 30 1005.8
20260906184520 88 47 7.0 14.0 0.00 0.00 0.00 31 1006.2
20260906183018 87 102 4.0 13.0 0.00 0.00 0.00 33 1006.7
20260906181528 85 110 6.0 11.0 0.00 0.00 0.00 35 1007.1
20260906180012 85 71 7.0 12.0 0.00 0.00 0.00 35 1007.4
20260906174507 83 126 1.0 10.0 0.00 0.00 0.00 35 1007.6
20260906173005 81 83 3.0 10.0 0.00 0.00 0.00 39 1007.9
20260906171504 81 207 3.0 6.0 0.00 0.00 0.00 36 1007.9
20260906170103 81 87 1.0 7.0 0.00 0.00 0.00 39 1008.1
20260906164558 80 95 5.0 9.0 0.00 0.00 0.00 42 1008.2
20260906163055 79 119 2.0 7.0 0.00 0.00 0.00 46 1008.3
20260906161551 78 71 2.0 5.0 0.00 0.00 0.00 46 1008.6
20260906160048 76 347 0.0 10.0 0.00 0.00 0.00 48 1008.4
20260906154547 76 101 3.0 7.0 0.00 0.00 0.00 49 1008.4
20260906153052 74 79 1.0 4.0 0.00 0.00 0.00 52 1008.4
20260906151540 72 316 1.0 4.0 0.00 0.00 0.00 55 1008.4
20260906150036 70 309 0.0 5.0 0.00 0.00 0.00 59 1008.5
20260906144538 68 301 1.0 4.0 0.00 0.00 0.00 63 1008.5
20260906143033 67 301 3.0 6.0 0.00 0.00 0.00 63 1008.5
20260906141531 66 311 1.0 4.0 0.00 0.00 0.00 64 1008.7
20260906140037 64 259 2.0 4.0 0.00 0.00 0.00 62 1008.7
20260906134529 63 304 2.0 4.0 0.00 0.00 0.00 61 1008.5
20260906133041 62 271 0.0 4.0 0.00 0.00 0.00 62 1008.3
20260906131527 61 271 3.0 4.0 0.00 0.00 0.00 62 1008.2
20260906130027 61 271 3.0 6.0 0.00 0.00 0.00 61 1008.2
20260906124527 60 276 4.0 6.0 0.00 0.00 0.00 63 1008.2
20260906123035 61 285 2.0 4.0 0.00 0.00 0.00 61 1008.1
20260906121520 62 289 2.0 6.0 0.00 0.00 0.00 60 1008.2
20260906120017 62 285 3.0 5.0 0.00 0.00 0.00 59 1008.1
20260906114520 62 299 1.0 5.0 0.00 0.00 0.00 58 1008.1
20260906113014 63 294 3.0 5.0 0.00 0.00 0.00 56 1007.9
20260906111513 64 264 1.0 3.0 0.00 0.00 0.00 56 1007.8
20260906110012 64 264 1.0 4.0 0.00 0.00 0.00 55 1007.8
20260906104511 63 264 1.0 3.0 0.00 0.00 0.00 56 1007.7
20260906103011 63 264 1.0 3.0 0.00 0.00 0.00 56 1007.7
20260906101507 65 264 1.0 2.0 0.00 0.00 0.00 53 1007.9
20260906100008 65 264 1.0 3.0 0.00 0.00 0.00 52 1007.7
20260906094504 65 273 2.0 4.0 0.00 0.00 0.00 51 1007.4
20260906093011 66 269 2.0 4.0 0.00 0.00 0.00 51 1007.5
20260906091502 66 257 2.0 4.0 0.00 0.00 0.00 51 1007.5
20260906090001 66 257 2.0 5.0 0.00 0.00 0.00 51 1007.1
20260906084611 65 247 0.0 0.0 0.00 0.00 0.00 52 1007.1
20260906083059 65 247 0.0 0.0 0.00 0.00 0.00 54 1007.1
20260906081558 65 247 0.0 2.0 0.00 0.00 0.00 52 1007.2
20260906080056 66 246 3.0 5.0 0.00 0.00 0.00 52 1007.1
20260906074603 66 240 2.0 4.0 0.00 0.00 0.00 52 1007.3
20260906073057 67 277 0.0 2.0 0.00 0.00 0.00 51 1007.3
20260906071548 68 260 3.0 6.0 0.00 0.00 0.00 50 1007.1
20260906070055 68 235 4.0 5.0 0.00 0.00 0.00 49 1006.9
20260906064546 69 241 2.0 5.0 0.00 0.00 0.00 48 1006.9
20260906063045 69 280 3.0 7.0 0.00 0.00 0.00 50 1006.9
20260906061558 69 348 2.0 6.0 0.00 0.00 0.00 49 1006.9
20260906060037 71 325 1.0 8.0 0.00 0.00 0.00 44 1007.1
20260906054537 72 328 3.0 5.0 0.00 0.00 0.00 43 1007.2
20260906053041 73 11 0.0 3.0 0.00 0.00 0.00 41 1007.1
20260906051536 74 355 0.0 3.0 0.00 0.00 0.00 42 1007.1
20260906050042 74 5 0.0 6.0 0.00 0.00 0.00 50 1007.3
20260906044535 72 49 0.0 0.0 0.00 0.00 0.00 54 1007.4
20260906043042 73 49 0.0 1.0 0.00 0.00 0.00 53 1007.5
20260906041534 73 17 0.0 0.0 0.00 0.00 0.00 52 1007.6
20260906040034 74 315 1.0 4.0 0.00 0.00 0.00 49 1007.6
20260906034532 75 24 0.0 11.0 0.00 0.00 0.00 48 1007.7
20260906033031 74 179 0.0 3.0 0.00 0.00 0.00 44 1007.8
20260906031530 74 185 1.0 5.0 0.00 0.00 0.00 40 1007.7
20260906030030 76 162 0.0 4.0 0.00 0.00 0.00 31 1007.1
20260906024529 78 248 0.0 3.0 0.00 0.00 0.00 29 1006.3
20260906023029 78 248 2.0 4.0 0.00 0.00 0.00 29 1006.1
20260906021529 78 232 3.0 5.0 0.00 0.00 0.00 29 1006.1
20260906020029 79 227 0.0 0.0 0.00 0.00 0.00 28 1005.9
20260906014541 79 219 0.0 4.0 0.00 0.00 0.00 28 1005.8
20260906013031 80 211 2.0 6.0 0.00 0.00 0.00 27 1005.7
20260906011527 81 207 7.0 12.0 0.00 0.00 0.00 26 1005.7
20260906010024 83 218 4.0 8.0 0.00 0.00 0.00 25 1005.6
20260906004523 84 242 4.0 10.0 0.00 0.00 0.00 25 1005.7
20260906003023 84 238 4.0 10.0 0.00 0.00 0.00 25 1005.7
20260906001522 85 147 6.0 12.0 0.00 0.00 0.00 24 1005.7
20260906000022 85 159 7.0 10.0 0.00 0.00 0.00 24 1005.6
20260905234521 86 140 6.0 9.0 0.00 0.00 0.00 24 1005.6
20260905233021 85 177 5.0 12.0 0.00 0.00 0.00 25 1005.5
20260905231520 85 145 6.0 12.0 0.00 0.00 0.00 25 1005.4
20260905230018 86 149 7.0 12.0 0.00 0.00 0.00 23 1005.4
20260905224517 86 74 0.0 4.0 0.00 0.00 0.00 25 1005.4
20260905223018 86 83 1.0 6.0 0.00 0.00 0.00 25 1005.5
20260905221516 86 58 1.0 4.0 0.00 0.00 0.00 24 1005.6
20260905220013 87 92 1.0 5.0 0.00 0.00 0.00 23 1005.6
20260905214512 89 121 1.0 10.0 0.00 0.00 0.00 22 1005.8